This demonstration page uses our WeatherBlox Daily Observations layout. Learn more.

Hourly Observations for July 5, 2015

Temp ( °F °C ) Dew Point ( °F °C ) Humidity (%) Winds ( mph kmh ) Pressure ( in mb ) Visibility ( mi km ) Precip ( " mm )
12:15 am 00:15 Clear 73 23 62 16.8 68 68 SSE 10 17 29.8 1009 10 16.0934 0 0
12:35 am 00:35 Clear 73 23 62 16.7 68 68 SSE 12 19 29.8 1009 10 16.0934 0 0
12:55 am 00:55 Clear 73 23 62 16.6 67 67 SSE 12 19 29.8 1009 10 16.0934 0 0
1:15 am 01:15 Clear 73 22.9 62 16.6 68 68 SSE 10 17 29.8 1009 10 16.0934 0 0
1:35 am 01:35 Clear 73 23 62 16.5 67 67 SSE 12 19 29.8 1009 10 16.0934 0 0
1:55 am 01:55 Clear 73 23 62 16.5 67 67 SSE 12 19 29.8 1009 10 16.0934 0 0
2:15 am 02:15 Clear 73 23 62 16.5 67 67 SSE 12 19 29.8 1009 10 16.0934 0 0
2:35 am 02:35 Clear 74 23.3 62 16.5 66 66 SSE 15 24 29.77 1008 10 16.0934 0 0
2:55 am 02:55 Clear 73 23 62 16.6 67 67 SSE 13 20 29.77 1008 10 16.0934 0 0
3:15 am 03:15 Clear 73 23 63 17 69 69 S 14 22 29.77 1008 10 16.0934 0 0
3:35 am 03:35 Clear 73 22.6 63 17 71 71 SSE 13 20 29.77 1008 10 16.0934 0 0
3:55 am 03:55 Clear 72 22.3 63 17.1 73 73 SSE 12 19 29.77 1008 10 16.0934 0 0
4:15 am 04:15 Clear 72 22 63 17.3 75 75 S 13 20 29.77 1008 10 16.0934 0 0
4:35 am 04:35 Clear 71 21.8 64 17.5 77 77 SSE 12 19 29.77 1008 10 16.0934 0 0
4:55 am 04:55 Clear 71 21.6 64 17.5 78 78 S 14 22 29.74 1007 10 16.0934 0 0
5:15 am 05:15 Clear 71 21.4 64 17.7 80 80 SSE 12 19 29.77 1008 10 16.0934 0 0
5:35 am 05:35 Clear 70 21.1 64 17.8 82 82 SSE 9 15 29.77 1008 10 16.0934 0 0
5:55 am 05:55 Clear 70 21 64 17.9 83 83 S 13 20 29.77 1008 10 16.0934 0 0
6:15 am 06:15 Sunny 69 20.8 64 18 84 84 SSE 10 17 29.74 1007 10 16.0934 0 0
6:35 am 06:35 Sunny 69 20.7 64 18 85 85 S 10 17 29.77 1008 10 16.0934 0 0
6:55 am 06:55 Sunny 69 20.5 64 18 86 86 S 9 15 29.74 1007 10 16.0934 0 0
7:15 am 07:15 Sunny 69 20.8 65 18.2 85 85 S 9 15 29.74 1007 10 16.0934 0 0
7:35 am 07:35 Sunny 70 21.3 65 18.5 84 84 SSE 12 19 29.77 1008 10 16.0934 0 0
7:55 am 07:55 Sunny 71 21.7 65 18.5 82 82 SE 12 19 29.74 1007 10 16.0934 0 0
8:15 am 08:15 Sunny 72 22.3 66 18.8 81 81 SSE 12 19 29.74 1007 10 16.0934 0 0
8:35 am 08:35 Sunny 74 23.1 66 19 78 78 SSE 13 20 29.74 1007 10 16.0934 0 0
8:55 am 08:55 Sunny 75 23.8 66 19.1 75 75 SSE 15 24 29.74 1007 10 16.0934 0 0
9:15 am 09:15 Sunny 76 24.5 66 19 72 72 SSE 13 20 29.77 1008 10 16.0934 0 0
9:35 am 09:35 Sunny 77 25 66 19 69 69 SSE 12 19 29.77 1008 10 16.0934 0 0
9:55 am 09:55 Sunny 78 25.4 66 18.8 67 67 S 16 26 29.77 1008 10 16.0934 0 0
10:15 am 10:15 Sunny 79 26.3 66 19.1 65 65 SSE 14 22 29.74 1007 10 16.0934 0 0
10:35 am 10:35 Sunny 81 27.2 67 19.4 62 62 SSE 14 22 29.71 1006 10 16.0934 0 0
10:55 am 10:55 Sunny 82 27.5 67 19.2 61 61 SE 13 20 29.71 1006 10 16.0934 0 0
11:15 am 11:15 Sunny 83 28.2 67 19.2 58 58 SSE 12 19 29.71 1006 10 16.0934 0 0
11:35 am 11:35 Sunny 84 28.9 66 19.1 55 55 SSE 13 20 29.68 1005 10 16.0934 0 0
11:55 am 11:55 Sunny 85 29.5 66 18.8 53 53 SE 16 26 29.68 1005 10 16.0934 0 0
12:15 pm 12:15 Sunny 86 30 66 19 52 52 SSE 14 22 29.68 1005 10 16.0934 0 0
12:35 pm 12:35 Sunny 87 30.6 66 18.9 50 50 SSE 17 28 29.65 1004 10 16.0934 0 0
12:55 pm 12:55 Sunny 88 31.2 67 19.2 49 49 SSE 15 24 29.65 1004 10 16.0934 0 0
1:15 pm 13:15 Sunny 89 31.7 66 19.1 47 47 SE 17 28 29.65 1004 10 16.0934 0 0
1:35 pm 13:35 Sunny 90 32.2 67 19.3 46 46 SSE 18 30 29.65 1004 10 16.0934 0 0
1:55 pm 13:55 Sunny 91 32.9 66 19 44 44 SSE 17 28 29.59 1002 10 16.0934 0 0
2:15 pm 14:15 Sunny 92 33.6 65 18.5 41 41 SSE 14 22 29.59 1002 10 16.0934 0 0
2:35 pm 14:35 Sunny 94 34.3 65 18.2 38 38 SSE 16 26 29.59 1002 10 16.0934 0 0
2:55 pm 14:55 Sunny 95 35 65 18.2 37 37 SSE 15 24 29.59 1002 10 16.0934 0 0
3:15 pm 15:15 Sunny 95 35.2 62 16.9 34 34 S 14 22 29.59 1002 10 16.0934 0 0
3:35 pm 15:35 Sunny 97 36 63 17.1 33 33 S 15 24 29.59 1002 10 16.0934 0 0
3:55 pm 15:55 Sunny 98 36.9 62 16.5 30 30 S 15 24 29.56 1001 10 16.0934 0 0
4:15 pm 16:15 Sunny 99 37.2 59 15.2 27 27 S 14 22 29.56 1001 10 16.0934 0 0
4:35 pm 16:35 Sunny 99 37.2 62 16.7 30 30 SW 10 17 29.53 1000 10 16.0934 0 0
4:55 pm 16:55 Sunny 99 37.2 60 15.4 27 27 SSW 15 24 29.53 1000 10 16.0934 0 0
5:15 pm 17:15 Sunny 99 37 62 16.5 30 30 SSW 12 19 29.53 1000 10 16.0934 0 0
5:35 pm 17:35 Sunny 99 37.2 60 15.4 27 27 S 12 19 29.53 1000 10 16.0934 0 0
5:55 pm 17:55 Sunny 95 35.2 63 17 34 34 S 9 15 29.56 1001 10 16.0934 0 0
6:15 pm 18:15 Sunny 94 34.7 63 17.1 35 35 S 10 17 29.53 1000 10 16.0934 0 0
6:35 pm 18:35 Sunny 94 34.7 63 17 35 35 S 10 17 29.53 1000 10 16.0934 0 0
6:55 pm 18:55 Sunny 94 34.5 63 17.1 35 35 S 12 19 29.56 1001 10 16.0934 0 0
7:15 pm 19:15 Sunny 93 33.8 62 16.8 36 36 S 13 20 29.56 1001 10 16.0934 0 0
7:35 pm 19:35 Sunny 91 33 61 15.9 36 36 S 13 20 29.56 1001 10 16.0934 0 0
7:55 pm 19:55 Sunny 90 32.2 62 16.4 39 39 S 8 13 29.56 1001 10 16.0934 0 0
8:15 pm 20:15 Sunny 87 30.6 62 16.7 43 43 S 9 15 29.59 1002 10 16.0934 0 0
8:35 pm 20:35 Sunny 85 29.7 62 16.5 45 45 S 8 13 29.59 1002 10 16.0934 0 0
8:55 pm 20:55 Sunny 85 29.7 60 15.6 42 42 SSW 10 17 29.59 1002 10 16.0934 0 0
9:15 pm 21:15 Clear 84 29.1 60 15.6 44 44 SSW 8 13 29.59 1002 10 16.0934 0 0
9:35 pm 21:35 Clear 82 27.8 62 16.6 51 51 NW 5 7 29.62 1003 10 16.0934 0 0
9:55 pm 21:55 Clear 86 30.1 57 14 37 37 SSE 7 11 29.59 1002 10 16.0934 0 0
10:15 pm 22:15 Clear 83 28.6 60 15.4 45 45 SSE 7 11 29.62 1003 10 16.0934 0 0
10:35 pm 22:35 Clear 83 28.1 58 14.7 44 44 S 9 15 29.65 1004 10 16.0934 0 0
10:55 pm 22:55 Clear 84 28.9 58 14.2 41 41 S 14 22 29.62 1003 10 16.0934 0 0
11:15 pm 23:15 Partly Cloudy with Light Rain 83 28.4 59 15.1 44 44 SSW 10 17 29.68 1005 10 16.0934 0 0
11:35 pm 23:35 Partly Cloudy with Light Rain 81 27 62 16.8 54 54 SW 7 11 29.65 1004 10 16.0934 0 0
11:55 pm 23:55 Partly Cloudy 80 26.7 62 16.6 54 54 SW 5 7 29.68 1005 10 16.0934 0 0

Powered by AerisWeather